Time,TemperatureF,DewpointF,PressureIn,WindDirection,WindDirectionDegrees,WindSpeedMPH,WindSpeedGustMPH,Humidity,HourlyPrecipIn,Conditions,Clouds,dailyrainin,SoftwareType,DateUTC
2013-03-07 00:02:00,30.0,28.0,-100.00,WSW,241,0.0,0.0,93,0.00,,,0.00,,2013-03-07 05:02:00,
2013-03-07 00:12:00,30.0,28.0,-100.00,WSW,241,0.0,0.0,93,0.00,,,0.00,,2013-03-07 05:12:00,
2013-03-07 00:32:00,30.0,28.0,-100.00,NW,312,0.0,0.0,92,0.00,,,0.00,,2013-03-07 05:32:00,
2013-03-07 00:42:00,30.0,28.0,-100.00,NW,312,0.0,0.0,92,0.00,,,0.00,,2013-03-07 05:42:00,
2013-03-07 00:52:00,30.0,28.0,-100.00,NW,312,0.0,0.0,92,0.00,,,0.00,,2013-03-07 05:52:00,
2013-03-07 01:02:00,30.0,28.0,-100.00,NW,312,0.0,0.0,92,0.00,,,0.00,,2013-03-07 06:02:00,
2013-03-07 01:11:00,30.0,28.0,-100.00,NW,312,0.0,0.0,92,0.00,,,0.00,,2013-03-07 06:11:00,
2013-03-07 01:32:00,30.0,27.0,-100.00,NW,312,0.0,0.0,90,0.00,,,0.00,,2013-03-07 06:32:00,
2013-03-07 01:42:00,30.0,27.0,-100.00,NW,312,0.0,0.0,90,0.00,,,0.00,,2013-03-07 06:42:00,
2013-03-07 01:52:00,30.0,27.0,-100.00,NW,312,0.0,0.0,90,0.00,,,0.00,,2013-03-07 06:52:00,
2013-03-07 02:02:00,30.0,27.0,-100.00,NW,312,0.0,0.0,90,0.00,,,0.00,,2013-03-07 07:02:00,
2013-03-07 02:11:00,30.0,27.0,-100.00,NW,312,0.0,0.0,90,0.00,,,0.00,,2013-03-07 07:11:00,
2013-03-07 02:32:00,30.0,27.0,-100.00,WNW,297,0.0,0.0,90,0.00,,,0.00,,2013-03-07 07:32:00,
2013-03-07 02:43:00,30.0,27.0,-100.00,WNW,297,0.0,0.0,90,0.00,,,0.00,,2013-03-07 07:43:00,
2013-03-07 02:53:00,30.0,27.0,-100.00,WNW,297,0.0,0.0,90,0.00,,,0.00,,2013-03-07 07:53:00,
2013-03-07 03:03:00,30.0,27.0,-100.00,WNW,297,0.0,0.0,90,0.00,,,0.00,,2013-03-07 08:03:00,
2013-03-07 03:12:00,30.0,27.0,-100.00,WNW,297,0.0,0.0,90,0.00,,,0.00,,2013-03-07 08:12:00,
2013-03-07 03:45:00,29.0,26.0,-100.00,North,357,0.0,0.0,90,0.00,,,0.00,,2013-03-07 08:45:00,
2013-03-07 03:54:00,29.0,26.0,-100.00,North,357,0.0,0.0,90,0.00,,,0.00,,2013-03-07 08:54:00,
2013-03-07 04:03:00,29.0,26.0,-100.00,North,357,0.0,0.0,90,0.00,,,0.00,,2013-03-07 09:03:00,
2013-03-07 04:13:00,29.0,26.0,-100.00,North,357,0.0,0.0,90,0.00,,,0.00,,2013-03-07 09:13:00,
2013-03-07 04:43:00,29.0,27.0,-100.00,West,272,0.0,0.0,91,0.00,,,0.00,,2013-03-07 09:43:00,
2013-03-07 04:53:00,29.0,27.0,-100.00,West,272,0.0,0.0,91,0.00,,,0.00,,2013-03-07 09:53:00,
2013-03-07 05:04:00,29.0,27.0,-100.00,West,272,0.0,0.0,91,0.00,,,0.00,,2013-03-07 10:04:00,
2013-03-07 05:13:00,29.0,27.0,-100.00,West,272,0.0,0.0,91,0.00,,,0.00,,2013-03-07 10:13:00,
2013-03-07 05:43:00,29.0,26.0,-100.00,West,276,0.0,0.0,89,0.00,,,0.00,,2013-03-07 10:43:00,
2013-03-07 05:53:00,29.0,26.0,-100.00,West,276,0.0,0.0,89,0.00,,,0.00,,2013-03-07 10:53:00,
2013-03-07 06:03:00,29.0,26.0,-100.00,West,276,0.0,0.0,89,0.00,,,0.00,,2013-03-07 11:03:00,
2013-03-07 06:12:00,29.0,26.0,-100.00,West,276,0.0,0.0,89,0.00,,,0.00,,2013-03-07 11:12:00,
2013-03-07 06:44:00,29.0,26.0,-100.00,WNW,293,0.0,0.0,88,0.00,,,0.00,,2013-03-07 11:44:00,
2013-03-07 06:55:00,29.0,26.0,-100.00,WNW,293,0.0,0.0,88,0.00,,,0.00,,2013-03-07 11:55:00,
2013-03-07 07:04:00,29.0,26.0,-100.00,WNW,293,0.0,0.0,88,0.00,,,0.00,,2013-03-07 12:04:00,
2013-03-07 07:12:00,29.0,26.0,-100.00,WNW,293,0.0,0.0,88,0.00,,,0.00,,2013-03-07 12:12:00,
2013-03-07 07:34:00,29.0,26.0,-100.00,WSW,258,0.0,0.0,87,0.00,,,0.00,,2013-03-07 12:34:00,
2013-03-07 07:43:00,29.0,26.0,-100.00,WSW,258,0.0,0.0,87,0.00,,,0.00,,2013-03-07 12:43:00,
2013-03-07 07:53:00,29.0,26.0,-100.00,WSW,258,0.0,0.0,87,0.00,,,0.00,,2013-03-07 12:53:00,
2013-03-07 08:03:00,29.0,26.0,-100.00,WSW,258,0.0,0.0,87,0.00,,,0.00,,2013-03-07 13:03:00,
2013-03-07 08:12:00,29.0,26.0,-100.00,WSW,258,0.0,0.0,87,0.00,,,0.00,,2013-03-07 13:12:00,
2013-03-07 08:42:00,30.0,27.0,-100.00,WSW,255,0.0,0.0,88,0.00,,,0.00,,2013-03-07 13:42:00,
2013-03-07 08:53:00,30.0,27.0,-100.00,WSW,255,0.0,0.0,88,0.00,,,0.00,,2013-03-07 13:53:00,
2013-03-07 09:02:00,30.0,27.0,-100.00,WSW,255,0.0,0.0,88,0.00,,,0.00,,2013-03-07 14:02:00,
2013-03-07 09:12:00,30.0,27.0,-100.00,WSW,255,0.0,0.0,88,0.00,,,0.00,,2013-03-07 14:12:00,
2013-03-07 09:34:00,31.0,27.0,-100.00,North,355,0.0,0.0,84,0.00,,,0.00,,2013-03-07 14:34:00,
2013-03-07 09:43:00,31.0,27.0,-100.00,North,355,0.0,0.0,84,0.00,,,0.00,,2013-03-07 14:43:00,
2013-03-07 09:54:00,31.0,27.0,-100.00,North,355,0.0,0.0,84,0.00,,,0.00,,2013-03-07 14:54:00,
2013-03-07 10:03:00,31.0,27.0,-100.00,North,355,0.0,0.0,84,0.00,,,0.00,,2013-03-07 15:03:00,
2013-03-07 10:12:00,31.0,27.0,-100.00,North,355,0.0,0.0,84,0.00,,,0.00,,2013-03-07 15:12:00,
2013-03-07 10:43:00,32.0,27.0,-100.00,West,259,0.0,0.0,83,0.00,,,0.00,,2013-03-07 15:43:00,
2013-03-07 10:53:00,32.0,27.0,-100.00,West,259,0.0,0.0,83,0.00,,,0.00,,2013-03-07 15:53:00,
2013-03-07 11:03:00,32.0,27.0,-100.00,West,259,0.0,0.0,83,0.00,,,0.00,,2013-03-07 16:03:00,
2013-03-07 11:13:00,32.0,27.0,-100.00,West,259,0.0,0.0,83,0.00,,,0.00,,2013-03-07 16:13:00,
2013-03-07 11:43:00,32.0,27.0,-100.00,WNW,282,3.0,5.0,81,0.00,,,0.00,,2013-03-07 16:43:00,
2013-03-07 11:53:00,32.0,27.0,-100.00,WNW,282,3.0,5.0,81,0.00,,,0.00,,2013-03-07 16:53:00,
2013-03-07 12:03:00,32.0,27.0,-100.00,WNW,282,3.0,5.0,81,0.00,,,0.00,,2013-03-07 17:03:00,
2013-03-07 12:12:00,32.0,27.0,-100.00,WNW,282,3.0,5.0,81,0.00,,,0.00,,2013-03-07 17:12:00,
2013-03-07 12:44:00,33.0,25.0,-100.00,NW,304,2.0,7.0,72,0.00,,,0.00,,2013-03-07 17:44:00,
2013-03-07 12:55:00,33.0,25.0,-100.00,NW,304,2.0,7.0,72,0.00,,,0.00,,2013-03-07 17:55:00,
2013-03-07 13:04:00,33.0,25.0,-100.00,NW,304,2.0,7.0,72,0.00,,,0.00,,2013-03-07 18:04:00,
2013-03-07 13:13:00,33.0,25.0,-100.00,NW,304,2.0,7.0,72,0.00,,,0.00,,2013-03-07 18:13:00,
2013-03-07 13:33:00,35.0,26.0,-100.00,NW,320,2.0,6.0,70,0.05,,,0.05,,2013-03-07 18:33:00,
2013-03-07 13:43:00,35.0,26.0,-100.00,NW,320,2.0,6.0,70,0.05,,,0.05,,2013-03-07 18:43:00,
2013-03-07 13:53:00,35.0,26.0,-100.00,NW,320,2.0,6.0,70,0.05,,,0.05,,2013-03-07 18:53:00,
2013-03-07 14:03:00,35.0,26.0,-100.00,NW,320,2.0,6.0,70,0.05,,,0.05,,2013-03-07 19:03:00,
2013-03-07 14:12:00,35.0,26.0,-100.00,NW,320,2.0,6.0,70,0.05,,,0.05,,2013-03-07 19:12:00,
2013-03-07 14:44:00,35.0,26.0,-100.00,South,178,2.0,6.0,70,0.04,,,0.09,,2013-03-07 19:44:00,
2013-03-07 14:53:00,35.0,26.0,-100.00,South,178,2.0,6.0,70,0.04,,,0.09,,2013-03-07 19:53:00,
2013-03-07 15:02:00,35.0,26.0,-100.00,South,178,2.0,6.0,70,0.04,,,0.09,,2013-03-07 20:02:00,
2013-03-07 15:13:00,35.0,26.0,-100.00,South,178,2.0,6.0,70,0.04,,,0.09,,2013-03-07 20:13:00,
2013-03-07 15:43:00,35.0,26.0,-100.00,West,267,3.0,5.0,69,0.03,,,0.12,,2013-03-07 20:43:00,
2013-03-07 15:54:00,35.0,26.0,-100.00,West,267,3.0,5.0,69,0.03,,,0.12,,2013-03-07 20:54:00,
2013-03-07 16:03:00,35.0,26.0,-100.00,West,267,3.0,5.0,69,0.03,,,0.12,,2013-03-07 21:03:00,
2013-03-07 16:12:00,35.0,26.0,-100.00,West,267,3.0,5.0,69,0.03,,,0.12,,2013-03-07 21:12:00,
2013-03-07 16:43:00,34.0,26.0,-100.00,NW,304,2.0,6.0,73,0.02,,,0.14,,2013-03-07 21:43:00,
2013-03-07 16:53:00,34.0,26.0,-100.00,NW,304,2.0,6.0,73,0.02,,,0.14,,2013-03-07 21:53:00,
2013-03-07 17:02:00,34.0,26.0,-100.00,NW,304,2.0,6.0,73,0.02,,,0.14,,2013-03-07 22:02:00,
2013-03-07 17:12:00,34.0,26.0,-100.00,NW,304,2.0,6.0,73,0.02,,,0.14,,2013-03-07 22:12:00,
2013-03-07 17:33:00,33.0,26.0,-100.00,West,261,2.0,5.0,76,0.02,,,0.16,,2013-03-07 22:33:00,
2013-03-07 17:44:00,33.0,26.0,-100.00,West,261,2.0,5.0,76,0.02,,,0.16,,2013-03-07 22:44:00,
2013-03-07 17:55:00,33.0,26.0,-100.00,West,261,2.0,5.0,76,0.02,,,0.16,,2013-03-07 22:55:00,
2013-03-07 18:03:00,33.0,26.0,-100.00,West,261,2.0,5.0,76,0.02,,,0.16,,2013-03-07 23:03:00,
2013-03-07 18:13:00,33.0,26.0,-100.00,West,261,2.0,5.0,76,0.02,,,0.16,,2013-03-07 23:13:00,
2013-03-07 18:35:00,33.0,26.0,-100.00,SW,222,1.0,5.0,76,0.01,,,0.17,,2013-03-07 23:35:00,
2013-03-07 18:44:00,33.0,26.0,-100.00,SW,222,1.0,5.0,76,0.01,,,0.17,,2013-03-07 23:44:00,
2013-03-07 18:54:00,33.0,26.0,-100.00,SW,222,1.0,5.0,76,0.01,,,0.17,,2013-03-07 23:54:00,
2013-03-07 19:04:00,33.0,26.0,-100.00,SW,222,1.0,5.0,76,0.01,,,0.17,,2013-03-08 00:04:00,
2013-03-07 19:13:00,33.0,26.0,-100.00,SW,222,1.0,5.0,76,0.01,,,0.17,,2013-03-08 00:13:00,
2013-03-07 19:35:00,32.0,25.0,-100.00,NE,47,1.0,5.0,76,0.00,,,0.17,,2013-03-08 00:35:00,
2013-03-07 19:44:00,32.0,25.0,-100.00,NE,47,1.0,5.0,76,0.00,,,0.17,,2013-03-08 00:44:00,
2013-03-07 19:54:00,32.0,25.0,-100.00,NE,47,1.0,5.0,76,0.00,,,0.17,,2013-03-08 00:54:00,
2013-03-07 20:02:00,32.0,25.0,-100.00,NE,47,1.0,5.0,76,0.00,,,0.17,,2013-03-08 01:02:00,
2013-03-07 20:11:00,32.0,25.0,-100.00,NE,47,1.0,5.0,76,0.00,,,0.17,,2013-03-08 01:11:00,
2013-03-07 20:42:00,32.0,27.0,-100.00,NNW,347,0.0,0.0,82,0.00,,,0.17,,2013-03-08 01:42:00,
2013-03-07 20:52:00,32.0,27.0,-100.00,NNW,347,0.0,0.0,82,0.00,,,0.17,,2013-03-08 01:52:00,
2013-03-07 21:02:00,32.0,27.0,-100.00,NNW,347,0.0,0.0,82,0.00,,,0.17,,2013-03-08 02:02:00,
2013-03-07 21:12:00,32.0,27.0,-100.00,NNW,347,0.0,0.0,82,0.00,,,0.17,,2013-03-08 02:12:00,
2013-03-07 21:42:00,31.0,27.0,-100.00,North,1,0.0,0.0,86,0.00,,,0.17,,2013-03-08 02:42:00,
2013-03-07 21:53:00,31.0,27.0,-100.00,North,1,0.0,0.0,86,0.00,,,0.17,,2013-03-08 02:53:00,
2013-03-07 22:02:00,31.0,27.0,-100.00,North,1,0.0,0.0,86,0.00,,,0.17,,2013-03-08 03:02:00,
2013-03-07 22:12:00,31.0,27.0,-100.00,North,1,0.0,0.0,86,0.00,,,0.17,,2013-03-08 03:12:00,
2013-03-07 22:33:00,31.0,26.0,-100.00,NNW,342,0.0,3.0,82,0.00,,,0.17,,2013-03-08 03:33:00,
2013-03-07 22:43:00,31.0,26.0,-100.00,NNW,342,0.0,3.0,82,0.00,,,0.17,,2013-03-08 03:43:00,
2013-03-07 22:53:00,31.0,26.0,-100.00,NNW,342,0.0,3.0,82,0.00,,,0.17,,2013-03-08 03:53:00,
2013-03-07 23:02:00,31.0,26.0,-100.00,NNW,342,0.0,3.0,82,0.00,,,0.17,,2013-03-08 04:02:00,
2013-03-07 23:12:00,31.0,26.0,-100.00,NNW,342,0.0,3.0,82,0.00,,,0.17,,2013-03-08 04:12:00,
2013-03-07 23:32:00,31.0,27.0,-100.00,NNE,20,0.0,0.0,84,0.00,,,0.17,,2013-03-08 04:32:00,
2013-03-07 23:42:00,31.0,27.0,-100.00,NNE,20,0.0,0.0,84,0.00,,,0.17,,2013-03-08 04:42:00,
2013-03-07 23:52:00,31.0,27.0,-100.00,NNE,20,0.0,0.0,84,0.00,,,0.17,,2013-03-08 04:52:00,